Location: Beaufort Park
(39.1418°N, 76.9433°W)
Time: 20:01:03
(UTC+00:00)

MOS 1 Rocket - Pass Details

Date: 29 October 2020
Orbit: 615 x 829 km, 97.4° (Epoch: 02 December)

Event Time Altitude Azimuth Distance (km) Brightness Sun altitude
Rises 23:02:24 0° 26° (NNE) 3,086 6.3 -10.8°
Reaches altitude 10° 23:05:01 10° 41° (NE) 2,202 5.4 -11.3°
Maximum altitude 23:08:56 24° 95° (E) 1,504 4.4 -12.0°
Drops below altitude 10° 23:12:59 10° 148° (SSE) 2,299 5.7 -12.8°
Sets 23:15:46 0° 162° (SSE) 3,256 6.6 -13.3°
